Flag for Greece Weather past 2 weeks in Larissa, Greece

Now
73 °F

Partly sunny.


Feels Like: 74 °F
Forecast: 67 / 91 °F
Wind: 3 mph from Northwest

Location: Thessaloniki Airport

Current Time: Jul 23, 2014 at 11:28:50 AM

Latest Report: Jul 23, 2014 at 8:50 AM


Visibility: N/A

Pressure: 29.71 "Hg

Humidity: 78%

Dew point: 66 °F

Location of LarissaLocation

Historic Weather in Larissa — Graph

°F

Larissa temperature yesterday

Maximum temperature yesterday: 86 °F (at 1:20 PM)
Minimum temperature yesterday: 68 °F (at 6:20 AM)
Average temperature yesterday: 79 °F

Past Weeks' High & Low Weather Summary

 TemperatureHumidityPressure
High93 °F (Jul 8, 2:50 PM)94% (Jul 15, 6:20 AM)29.95 "Hg (Jul 15, 6:20 AM)
Low64 °F (Jul 13, 6:20 AM)21% (Jul 9, 3:50 PM)29.59 "Hg (Jul 10, 5:50 PM)
Average79 °F54%29.81 "Hg
* Reported Jul 8 8:20 AM — Jul 23 8:20 AM, Larissa, Weather by CustomWeather, © 2014

Note: Actual official high and low records may vary slightly from our data, if they occured in-between our weather recording intervals... More about our weather records

Advertising

Larissa weather history for previous 24 hours

 ConditionsComfort  
Time TempWeatherWind HumidityBarometerVisibility
8:20 AM
Jul 23
75 °FPartly sunny.No wind78%29.68 "HgN/A
7:50 AM72 °FPartly sunny.3 mph83%29.68 "HgN/A
6:50 AM70 °FPassing clouds.No wind88%29.68 "HgN/A
6:20 AM68 °FPassing clouds.5 mph88%29.68 "HgN/A
5:50 AM68 °FPassing clouds.5 mph88%29.68 "HgN/A
5:20 AM68 °FPassing clouds.6 mph88%29.68 "HgN/A
4:20 AM68 °FPassing clouds.3 mph88%29.68 "HgN/A
3:50 AM68 °FPassing clouds.5 mph88%29.68 "HgN/A
3:20 AM68 °FPassing clouds.3 mph88%29.68 "HgN/A
2:50 AM70 °FPassing clouds.3 mph83%29.71 "HgN/A
7:50 PM
Jul 22
73 °FBroken clouds.18 mph78%29.71 "HgN/A
7:20 PM77 °FBroken clouds.20 mph69%29.71 "HgN/A
6:50 PM82 °FBroken clouds.14 mph58%29.68 "HgN/A
6:20 PM84 °FBroken clouds.13 mph51%29.68 "HgN/A
5:50 PM86 °FScattered clouds.10 mph49%29.68 "HgN/A
5:20 PM86 °FPassing clouds.9 mph46%29.68 "HgN/A
4:50 PM86 °FPassing clouds.7 mph43%29.68 "HgN/A
4:20 PM86 °FPassing clouds.8 mph43%29.68 "HgN/A
3:50 PM86 °FScattered clouds.9 mph43%29.71 "HgN/A
3:20 PM84 °FPartly sunny.13 mph51%29.74 "HgN/A
2:50 PM86 °FPartly sunny.13 mph46%29.74 "HgN/A
2:20 PM84 °FScattered clouds.12 mph48%29.74 "HgN/A
1:50 PM86 °FScattered clouds.12 mph46%29.74 "HgN/A
1:20 PM86 °FPartly sunny.9 mph43%29.74 "HgN/A
12:50 PM84 °FPartly sunny.8 mph48%29.74 "HgN/A
12:20 PM82 °FPartly sunny.8 mph48%29.74 "HgN/A
11:50 AM82 °FPartly sunny.7 mph51%29.77 "HgN/A
11:20 AM81 °FScattered clouds.6 mph54%29.77 "HgN/A
Weather by CustomWeather, © 2014

See weather overviewHow to use our weather pages